Regional Weather Roundup
Issued by NWS

Home | Current Version | Previous Version | Text Only | Print | Product List | Glossary On
Versions: 1 2 3 4 5 6 7 8 9 10 11 12 13 14 15 16 17 18 19 20 21 22 23 24 25 26 27 28
000
ASUS45 KCYS 311710
RWRWY

WYOMING REGIONAL WEATHER ROUNDUP
NATIONAL WEATHER SERVICE CHEYENNE WY
1100 AM MDT FRI OCT 31 2014

NOTE:  "FAIR" INDICATES FEW OR NO CLOUDS BELOW 12,000 FEET
WITH NO SIGNIFICANT WEATHER AND/OR OBSTRUCTIONS TO VISIBILITY.

WYZ001-311800-
YELLOWSTONE NATIONAL PARK

CITY           SKY/WX    TMP DP  RH WIND       PRES   REMARKS
LK YELLOWSTONE   N/A     47  31  53 CALM      30.12
W YELLOWSTONE  NOT AVBL

$$
WYZ002>013-054>058-071-098>099-311800-
NORTHERN WYOMING

CITY           SKY/WX    TMP DP  RH WIND       PRES   REMARKS
JACKSON        SUNNY     45  30  57 CALM      30.11F
CODY           CLOUDY    46  30  53 NW5       30.00S
GREYBULL       CLOUDY    48  24  39 CALM      30.00F
WORLAND        PTSUNNY   51  28  41 CALM      30.00F
SHERIDAN       PTSUNNY   43  30  60 NW7       29.99F
BUFFALO        CLOUDY    44  28  53 S23       30.01F
GILLETTE       CLOUDY    38  29  70 S29G38    30.09F WCI  26
HULETT         FAIR      54  30  40 S6        30.13
NEWCASTLE      FAIR      45  28  53 SE22G33   30.23

$$
WYZ014>020-022>026-101>103-311800-
CENTRAL WYOMING

CITY           SKY/WX    TMP DP  RH WIND       PRES   REMARKS
BIG PINEY      PTSUNNY   42  27  55 CALM      30.17F
PINEDALE       MOSUNNY   46  28  49 CALM      30.18
DUBOIS         FAIR      41  28  60 CALM      30.12S
LANDER         MOSUNNY   48  27  44 CALM      30.09F
RIVERTON       PTSUNNY   46  24  42 VRB3      30.11F
CASPER         MOSUNNY   41  29  62 E7        30.13F
DOUGLAS        MOSUNNY   42  29  59 SE25G33   30.17F

$$
WYZ021-027>030-104>119-311800-
SOUTHERN WYOMING

CITY           SKY/WX    TMP DP  RH WIND       PRES   REMARKS
EVANSTON       SUNNY     55  22  27 S6        30.14F
KEMMERER       MOSUNNY   48  28  46 CALM      30.16F
FORT BRIDGER   FAIR      45  28  51 N5        30.18F
ROCK SPRINGS   PTSUNNY   43  26  51 NE3       30.16F
DIXON          FAIR      55  28  35 W5        30.23F
RAWLINS        SUNNY     51  24  34 VRB3      30.19F
SARATOGA       FAIR      57  25  28 SE13      30.21F
LARAMIE        MOSUNNY   46  26  45 S17       30.22F
CHEYENNE       SUNNY     38  28  67 S15       30.28F WCI  29
TORRINGTON     SUNNY     43  32  65 SE16G23   30.27F
PINE BLUFFS    FAIR      41  32  70 S18G25    30.30F

$$



USA.gov is the U.S. government's official web portal to all federal, state and local government web resources and services.